Simultaneous Nadir Overpasses (SNOs) Predictions

Prediction of SNOs between METOP-A and TERRA Satellite Orbit:

Table of predicted SNOs for the next 14.0 days since TLE Epoch: 4/16/2016
Index Date (METOP-A) Time (METOP-A) Lat,Lon (METOP-A) SZA (METOP-A ) Date (TERRA) Time (TERRA) Lat,Lon (TERRA) SZA (TERRA ) Distance(km) Time Diff (sec)
1 04/18/2016 07:54:55 -81.31, -71.46 106.84 04/18/2016 07:55:02 -81.31, -71.28 106.82 2.95 7
2 04/18/2016 08:45:34 81.32, 96.43 73.22 04/18/2016 08:44:28 81.32, 96.49 73.19 0.89 66
3 04/21/2016 03:29:18 -81.31, -4.85 107.76 04/21/2016 03:29:22 -81.32, -4.74 107.75 1.78 4
4 04/21/2016 04:19:57 81.32, 163.04 72.30 04/21/2016 04:18:48 81.32, 162.98 72.26 0.87 69
5 04/23/2016 23:03:41 -81.32, 61.73 108.66 04/23/2016 23:03:44 -81.32, 61.80 108.64 1.36 3
6 04/23/2016 23:54:20 81.32,-130.38 71.40 04/23/2016 23:53:10 81.33,-130.51 71.36 2.21 70
7 04/26/2016 18:38:04 -81.31, 127.90 109.58 04/26/2016 18:38:08 -81.31, 127.96 109.57 0.97 4
8 04/26/2016 19:28:43 81.32, -64.22 70.48 04/26/2016 19:27:34 81.31, -64.39 70.43 2.91 69
9 04/29/2016 14:12:27 -81.31,-165.57 110.42 04/29/2016 14:12:34 -81.32,-165.50 110.41 1.22 7




NCC Satellite Simultaneous Nadir Overpasses (SNOs) Prediction Service
